Location: Llandwrog
(53.0667°N, 4.3167°W)
Time: 11:37:51
(UTC+00:00)

Daily predictions for brighter satellites

Satellite Brightness Start Highest point End
(mag) Time Altitude Azimuth Time Altitude Azimuth Time Altitude Azimuth
Cosmos 1777 Rocket 4.2 17:22:13 10° SSW 17:27:30 79° WNW 17:32:51 10° NNE
Envisat 3.9 17:23:10 10° S 17:28:09 56° W 17:33:11 10° NNW
Cosmos 2344 4.2 17:19:47 10° NW 17:28:23 71° NE 17:40:14 10° ESE
NOSS 2-1 (D) 4.4 17:27:14 10° S 17:29:51 22° ESE 17:32:35 10° ENE
H-2A R/B 2.6 17:25:47 10° NNE 17:29:58 40° E 17:34:01 10° S
USA 229 DEB 3.9 17:23:10 10° NW 17:30:22 79° NE 17:38:01 10° SE
USA 229 3.9 17:23:17 10° NW 17:30:29 78° NE 17:38:08 10° SE
H-2A R/B 3.1 17:26:33 10° ESE 17:30:35 24° NE 17:34:43 10° N
Cosmos 1939 Rocket 3.3 17:28:35 10° SE 17:32:25 42° ENE 17:36:13 10° N
CZ-3B R/B 1.4 17:30:27 10° WNW 17:32:33 77° SSW 17:37:13 10° ESE
Helios 1A Rocket 4.5 17:30:29 10° E 17:33:05 16° NE 17:35:41 10° NNE
Cosmos 44 3.9 17:29:19 10° SSW 17:33:54 42° ESE 17:38:47 10° NE
SeaSat 1 2.5 17:29:29 10° NNE 17:34:27 88° NW 17:39:24 10° SW
Cosmos 158 Rocket 4.5 17:29:48 10° NNW 17:35:10 72° WSW 17:40:32 10° SSE
Cosmos 2112 Rocket 4.0 17:30:20 10° NNW 17:35:37 75° ENE 17:40:49 10° SSE
NOSS 3-4 (A) 4.5 17:30:42 10° WNW 17:36:22 36° NNW 17:42:37 10° NE
NOSS 3-4 (C) 4.5 17:30:48 10° WNW 17:36:28 36° NNW 17:42:42 10° NE
SJ 16-02 1.4 17:33:09 10° SSW 17:37:31 67° ESE 17:41:54 10° NNE
Feng Yun 1-1 Rocket 4.5 17:32:40 10° SE 17:37:58 49° ENE 17:43:26 10° N
FengYun 1-2 T 4.3 17:35:07 10° SSE 17:40:43 82° ENE 17:46:24 10° NNW
Aureole 3 Rocket 3.5 17:38:24 10° NNE 17:41:05 25° ENE 17:44:10 10° SE
YAOGAN 1 3.6 17:38:31 10° ESE 17:41:57 24° ENE 17:45:25 10° N
COSMOS 2406 3.3 17:36:22 10° NNW 17:42:06 58° NE 17:47:47 10° SE
Cosmos 2082 Rocket 2.8 17:37:01 10° NNW 17:42:19 36° NE 17:47:33 10° ESE
Cosmos 1844 Rocket 2.7 17:36:51 10° SSW 17:42:30 77° ESE 17:48:10 10° NNE
Cosmos 1892 Rocket 3.7 17:38:27 10° SSW 17:42:47 82° W 17:47:10 10° N
H-2A R/B 3.0 17:39:36 10° S 17:43:47 68° WSW 17:48:10 10° NNW
Cosmos 1818 3.6 17:38:21 10° SW 17:43:47 87° SE 17:49:18 10° NE
NOSS 3-1 (A) 4.0 17:38:48 10° NW 17:45:59 82° NE 17:54:29 10° SE
Cosmos 1844 3.8 17:40:55 10° SSW 17:46:33 69° ESE 17:52:19 10° NE
X-37B 3.0 17:45:06 10° SW 17:47:26 19° S 17:49:48 10° SE
Cosmos 1703 3.8 17:45:24 10° SSE 17:48:57 36° E 17:52:32 10° NNE
Cosmos 1812 Rocket 3.7 17:45:58 10° N 17:50:15 49° ENE 17:54:28 10° SSE
ISS -3.5 17:47:21 10° WSW 17:50:42 64° S 17:53:50 12° E
IRS-1C Rocket 4.4 17:46:27 10° SE 17:51:27 46° ENE 17:56:28 10° N
Meteor 2-1 Rocket 4.3 17:46:27 10° NNW 17:52:01 86° W 17:57:32 10° S
ATLAS 2AS CENTAUR R/B 3.8 17:46:23 10° W 17:53:49 42° NNW 18:00:55 10° NE
Cosmos 2227 Rocket 4.3 17:52:26 10° NW 17:55:41 15° NNW 17:58:55 10° NNE
ATLAS 5 CENTAUR R/B 2.9 17:52:16 10° W 17:56:14 32° NNW 18:00:48 10° NE
Okean O Rocket 1.9 17:52:45 10° S 17:57:10 72° WSW 18:01:36 10° NNW
Iridium 4 Rocket 3.9 17:53:23 10° N 17:58:34 41° ENE 18:03:18 10° SSE
ERS-2 3.6 17:58:38 12° NE 18:00:43 18° E 18:03:17 10° SE
SKYMED 2 4.2 17:56:46 10° NNE 18:00:48 36° E 18:04:49 10° SSE
CZ-4 R/B 1.9 17:57:48 10° SE 18:01:26 35° ENE 18:05:03 10° N
CZ-4C R/B 3.5 18:00:46 10° WNW 18:06:06 34° N 18:11:46 12° NE
CSL-04 Rocket 4.4 18:01:22 10° ESE 18:06:09 32° ENE 18:10:59 10° N
Meteor 2-13 Rocket 4.4 18:01:02 10° S 18:07:10 83° E 18:13:22 10° NNE
ADEOS Rocket 4.4 18:01:58 10° N 18:07:13 35° WNW 18:12:10 10° WSW
Okean-O 3.0 18:04:50 10° SE 18:08:59 40° ENE 18:13:08 10° N
Aureole 2 Rocket 4.1 18:08:31 10° WSW 18:11:14 27° NW 18:13:58 10° N
USA 234 3.4 18:05:52 13° ENE 18:11:42 66° N 18:18:11 10° W
Cosmos 1340 2.8 18:08:46 10° S 18:12:22 48° E 18:16:02 10° NNE
Cosmos 2278 Rocket 3.0 18:08:06 10° SSE 18:13:01 31° ESE 18:17:11 13° NE
Cosmos 1346 Rocket 3.9 18:09:54 10° SE 18:13:04 23° E 18:15:11 15° NE
CZ-2C R/B 3.2 18:12:01 10° SSE 18:17:33 76° ENE 18:23:21 10° NNW
Cosmos 2297 Rocket 4.3 18:16:40 10° NW 18:19:16 13° N 18:21:53 10° NNE
CZ-4B R/B 4.4 18:14:46 10° S 18:20:10 47° W 18:25:40 10° NNW
Cosmos 405 2.8 18:17:00 10° N 18:20:33 75° ENE 18:24:04 10° SSE
Cosmos 1455 3.8 18:17:28 10° NNW 18:21:04 39° W 18:24:40 10° SSW
COSMOS 2455 3.6 18:15:39 10° WSW 18:21:30 50° NW 18:27:23 10° NE
NOSS 2-1 (E) 3.0 18:21:33 10° SSW 18:24:48 59° SE 18:26:47 23° ENE
TELKOM 3 4.4 18:25:47 10° WSW 18:27:43 28° S 18:28:34 21° SSE
Cosmos 1627 Rocket 4.5 18:22:26 10° S 18:28:36 65° E 18:34:52 10° NNE
Cosmos 1869 4.1 18:25:15 10° N 18:28:40 28° ENE 18:30:10 22° ESE
Cosmos 1626 Rocket 3.7 18:24:38 10° SSW 18:29:03 78° W 18:33:33 10° N
NOSS 2-2 (D) 4.4 18:24:24 10° NW 18:29:03 48° NNE 18:33:29 18° ESE
ARGOS 3.4 18:26:01 10° SE 18:31:08 47° ENE 18:36:19 10° N
PSLV R/B 4.5 18:28:24 11° NNE 18:32:08 37° E 18:36:03 10° SSE
Cosmos 1898 Rocket 3.4 18:30:37 10° SSW 18:35:53 86° ESE 18:41:08 10° NNE
CZ-4B R/B 1.2 18:32:34 10° NNE 18:35:55 85° ESE 18:39:09 10° SSW
Cosmos 372 Rocket 4.4 18:31:53 10° S 18:36:43 39° ESE 18:39:58 19° NE
Cosmos 2263 Rocket 4.1 18:32:30 10° W 18:36:51 22° NNW 18:41:12 10° NNE
CZ-2C R/B 3.7 18:33:46 16° NE 18:36:53 25° E 18:41:28 10° SE
Cosmos 1092 Rocket 3.9 18:31:18 10° S 18:37:28 87° E 18:43:39 10° N
Cosmos 494 Rocket 4.4 18:34:37 10° NNW 18:39:31 41° NE 18:42:29 21° ESE
Cosmos 1328 3.7 18:35:42 10° S 18:39:41 89° E 18:43:41 10° N
CZ-2D R/B 3.9 18:38:06 10° S 18:41:54 58° W 18:45:42 10° NNW
MOS 1 Rocket 2.9 18:39:26 10° NNE 18:43:43 75° ESE 18:48:03 10° S
Cosmos 1048 Rocket 4.0 18:39:33 10° NNW 18:44:39 58° ENE 18:49:36 11° SE
Cosmos-2242 2.9 18:40:53 10° N 18:45:13 89° ENE 18:49:32 10° S
Meteor 2-15 4.4 18:42:41 10° NNW 18:48:54 90° WSW 18:55:04 10° S
COSMO-SKYMED 1 2.6 18:44:38 10° NNE 18:49:01 84° WNW 18:53:22 10° SSW
Meteor 1-11 4.1 18:47:12 10° S 18:52:49 72° E 18:58:25 10° NNE
USA 290 3.6 18:50:32 10° NW 18:53:33 40° WSW 18:56:34 10° S
Cosmos 1758 Rocket 3.5 18:51:18 10° S 18:55:47 84° E 19:00:19 10° NNE
Cosmos 1937 Rocket 3.5 18:53:06 10° SSW 18:58:27 86° WNW 19:03:19 13° NNE
Cosmos 2098 Rocket 4.3 18:52:32 10° S 19:00:00 85° E 19:07:03 10° NNE
SL-08 RB Rocket 3.7 18:59:18 16° SE 19:02:43 56° ENE 19:07:07 10° N
Cosmos 2221 3.3 19:00:35 10° N 19:03:42 33° NE 19:03:42 33° NE
CSL-04 Debris 4.0 18:59:34 10° SSE 19:04:57 81° ENE 19:10:23 10° NNW
H-2A R/B 3.9 19:01:58 10° N 19:05:49 30° WNW 19:09:35 10° WSW
Cosmos 389 Rocket 2.8 19:03:05 10° N 19:05:55 49° NNE 19:05:55 49° NNE
Cosmos 1833 Rocket 3.7 19:01:16 10° NW 19:06:39 48° WSW 19:12:01 10° S
Helios 1A Rocket 3.0 19:03:34 10° SSE 19:07:43 80° WSW 19:11:54 10° NNW
H-2A R/B 2.3 19:04:28 10° S 19:09:33 71° WSW 19:14:49 10° NNW
SeaSat 1 4.4 19:07:33 10° NNE 19:11:29 24° NW 19:15:25 10° W
Cosmos 1689 Rocket 4.0 19:13:25 21° SSW 19:13:25 21° SSW 19:14:32 10° SSW
Cosmos 2298 Rocket 4.3 19:08:12 10° S 19:13:14 44° ESE 19:13:35 44° E
NOSS 2-1 (C) 3.6 19:10:45 10° WSW 19:14:01 51° NW 19:14:40 44° N
Cosmos 44 4.1 19:10:19 10° WSW 19:15:09 49° NW 19:17:57 25° NNE
Cosmos 2266 Rocket 4.1 19:09:49 10° SSE 19:15:43 48° E 19:21:33 10° NNE
SJ 16-02 3.6 19:13:07 10° W 19:16:32 22° NW 19:19:59 10° N
NOSS 2-2 (C) 4.2 19:12:15 10° NW 19:17:15 78° NE 19:20:07 35° ESE
YAOGAN 1 3.4 19:13:34 10° S 19:17:47 52° W 19:22:03 10° NNW
NOSS 2-1 (D) 3.7 19:16:45 10° WSW 19:19:59 46° NNW 19:20:27 43° N
Cosmos 2026 Rocket 4.4 19:15:22 10° SSW 19:21:29 62° WNW 19:27:44 10° N
HJ-1C 3.8 19:20:23 34° S 19:21:38 62° WSW 19:25:00 10° NNW
X-37B 3.5 19:22:23 10° SW 19:23:18 11° SSW 19:23:54 11° SSW
In-Cosmos 22 Rocket 4.2 19:19:38 10° S 19:25:16 60° E 19:29:35 17° NNE
Cosmos 1553 Rocket 4.4 19:19:13 10° NNW 19:25:35 66° W 19:31:50 10° S
Cosmos 2082 Rocket 2.7 19:21:06 10° NW 19:26:45 59° WSW 19:32:19 10° SSE
Cosmos 1844 Rocket 4.3 19:22:04 10° W 19:26:59 29° NW 19:31:29 12° NNE
ISS -2.9 19:24:04 10° W 19:26:48 49° WSW 19:26:48 49° WSW
Cosmos 1825 Rocket 3.9 19:23:17 10° SSW 19:27:39 66° WNW 19:32:06 10° N
NOSS 3-4 (A) 4.4 19:22:51 10° NW 19:28:51 38° NNE 19:30:38 33° NE
NOSS 3-4 (C) 4.4 19:22:57 10° NW 19:28:57 38° NNE 19:30:44 33° NE
Cosmos 1269 Rocket 4.2 19:24:08 10° NNW 19:29:03 49° NE 19:29:03 49° NE
ERS-2 3.1 19:33:12 32° NNW 19:34:29 47° WNW 19:37:58 10° SW
CZ-4 R/B 3.4 19:33:01 10° SSW 19:36:31 28° W 19:39:59 10° NW
MetOp-A 4.0 19:37:46 57° SE 19:38:46 73° ENE 19:44:08 10° NNW
NOSS 2-2 (E) 4.5 19:35:13 10° NW 19:40:28 75° SW 19:43:31 35° SSE
Meteor 2-21 4.3 19:35:13 10° S 19:41:15 67° E 19:47:21 10° NNE
ATLAS 5 CENTAUR R/B 3.3 19:38:09 10° NW 19:42:12 26° N 19:42:29 26° NNE
Cosmos 2227 Rocket 4.3 19:39:35 10° NNW 19:42:20 13° N 19:42:53 13° NNE
Cosmos 2315 Rocket 3.8 19:38:05 10° N 19:44:22 74° ENE 19:46:33 42° SSE
Cosmos 883 Rocket 4.3 19:38:55 10° N 19:45:11 86° E 19:50:11 16° S
CSL-04 Rocket 4.3 19:40:53 10° S 19:46:14 56° WSW 19:51:42 10° NNW
ATLAS 2AS CENTAUR R/B 3.6 19:39:19 10° WNW 19:46:34 40° NNE 19:48:21 35° NE
Cosmos 1346 Rocket 4.1 19:45:32 10° SW 19:49:13 39° WNW 19:50:46 27° NNW
Meteor 2-14 Rocket 4.3 19:43:12 10° S 19:49:14 72° E 19:55:20 10° NNE
Ariane Rocket 3.3 19:51:37 52° N 19:51:37 52° N 19:55:35 10° NNW
IRS-1A Rocket 4.2 19:51:16 68° ESE 19:51:54 75° ENE 19:57:46 10° NNW
S3M 4.4 19:46:05 10° NNW 19:52:06 59° W 19:58:06 10° S
Cosmos 1953 Rocket 4.2 19:49:58 10° SSW 19:54:14 53° WNW 19:55:15 42° NNW
USA 234 3.2 19:53:12 57° ENE 19:54:28 71° NNE 20:01:00 10° WNW
CZ-4C R/B 3.3 19:50:09 10° NW 19:56:12 41° NNE 19:56:58 40° NE
Cosmos 2278 Rocket 2.6 19:51:12 10° SW 19:56:49 60° NW 19:59:05 35° N
Cosmos 1655 Rocket 4.0 19:52:40 10° SSW 19:58:54 78° WNW 20:05:11 10° N
Cosmos 44 Rocket 4.2 19:58:50 10° SW 20:02:05 41° SSW 20:02:05 41° SSW
USA 281 3.7 20:04:50 44° NNE 20:04:50 44° NNE 20:10:17 10° NNW
Cosmos 2297 Rocket 4.2 20:02:31 10° NNW 20:05:07 15° N 20:05:07 15° N
CZ-2C R/B 3.0 20:15:10 34° N 20:17:37 67° WNW 20:23:11 10° SSW
ATLAS 2AS CENTAUR R/B 3.9 21:31:05 10° NW 21:35:47 40° NW 21:35:47 40° NW
CZ-4C R/B 4.1 21:38:44 10° NW 21:42:09 34° NW 21:42:09 34° NW
